Weather History for Paganella, Italy

Change the Weather History Date:

Saturday, May 18, 2013

  Actual Average Record
Temperature  
Mean Temperature 32 °F -  
Max Temperature 41 °F 49 °F 59 °F (2002)
Min Temperature 23 °F 37 °F 23 °F (2013)
Degree Days  
Heating Degree Days 33    
Moisture  
Dew Point 29 °F    
Average Humidity 84    
Maximum Humidity 100    
Minimum Humidity 59    
Precipitation  
Precipitation 0.03 in 0.10 in - ()
Sea Level Pressure  
Sea Level Pressure 29.90 in    
Wind  
Wind Speed 13 mph ()    
Max Wind Speed 24 mph    
Max Gust Speed 34 mph    
Visibility 3.8 miles    
Events Fog , Rain    
Averages and records for this station are not official NWS values.
T = Trace of Precipitation, MM = Missing Value Source: Averaged Metar Reports

Daily Weather History Graph

Daily Weather History Graph

Search for Another Location

Airport:

Trip Planner

Search our weather history database for the weather conditions in past years. The results will help you decide how hot, cold, wet, or windy it might be!

Date:

Astronomy

May. 18, 2013 Rise Set
Actual Time 5:39 AM CEST 8:45 PM CEST
Civil Twilight 5:04 AM CEST 9:21 PM CEST
Nautical Twilight 4:18 AM CEST 10:07 PM CEST
Astronomical Twilight 3:22 AM CEST 11:03 PM CEST
Moon 1:08 PM CEST (5/18) 1:48 AM CEST (5/18)
Length of Visible Light 16h 16m
Length of Day
15h 05m
First Quarter, 52% of the Moon is Illuminated
May 18
First Quarter
May 25
Full
May 31
Last Quarter
Jun 8
New
Jun 16
First Quarter

Hourly Weather History & Observations

Time (CEST) Temp. Windchill Dew Point Humidity Pressure Visibility Wind Dir Wind Speed Gust Speed Precip Events Conditions
12:55 AM 30.2 °F 16.8 °F 28.4 °F 93% 29.74 in 0.1 mi SW 23.0 mph 34.5 mph N/A Fog Light Freezing Fog
1:55 AM 30.2 °F 16.5 °F 28.4 °F 93% 29.74 in 0.2 mi SW 24.2 mph - N/A Fog Light Freezing Fog
2:00 AM 29 °F - 28 °F 93%  in 0 mi SW 24.2 mph - - Fog Heavy Fog
2:55 AM 30.2 °F 19.3 °F 26.6 °F 86% 29.77 in - SW 15.0 mph - N/A   Clear
3:55 AM 30.2 °F 19.8 °F 26.6 °F 86% 29.80 in - SSW 13.8 mph - N/A   Clear
4:55 AM 30.2 °F 19.3 °F 28.4 °F 93% 29.80 in 0.1 mi SW 15.0 mph - N/A Fog Fog
5:00 AM 29 °F - 28 °F 96%  in 0 mi SW 15.0 mph - - Fog Heavy Fog
5:55 AM 28.4 °F 19.7 °F 26.6 °F 93% 29.80 in - South 9.2 mph - N/A   Clear
6:55 AM 28.4 °F 18.5 °F 24.8 °F 86% 29.80 in 0.1 mi South 11.5 mph - N/A Fog Fog
7:55 AM 30.2 °F 20.2 °F 26.6 °F 86% 29.86 in 6.2 mi SSW 12.7 mph - N/A   Scattered Clouds
8:00 AM 30 °F - 27 °F 82%  in 12 mi SSW 12.7 mph - - Fog Light Fog
8:55 AM 32.0 °F 22.5 °F 28.4 °F 87% 29.89 in 6.2 mi South 12.7 mph - N/A   Scattered Clouds
9:55 AM 33.8 °F 25.8 °F 30.2 °F 87% 29.89 in 6.2 mi South 10.4 mph - N/A   Scattered Clouds
10:55 AM 33.8 °F 24.3 °F 30.2 °F 87% 29.92 in 6.2 mi South 13.8 mph - N/A   Scattered Clouds
11:00 AM 34 °F - 30 °F 79%  in 25 mi South 13.8 mph - -   Partly Cloudy
11:55 AM 35.6 °F 27.5 °F 30.2 °F 81% 29.92 in 6.2 mi South 11.5 mph - N/A   Scattered Clouds
12:55 PM 37.4 °F 28.9 °F 30.2 °F 75% 29.95 in 6.2 mi South 13.8 mph - N/A   Mostly Cloudy
1:55 PM 41.0 °F 34.3 °F 30.2 °F 65% 29.98 in 6.2 mi South 11.5 mph - N/A   Mostly Cloudy
2:00 PM 40 °F - 31 °F 59%  in 25 mi South 11.5 mph - -   Mostly Cloudy
2:55 PM 41.0 °F 34.3 °F 32.0 °F 70% 29.98 in 6.2 mi South 11.5 mph - N/A   Mostly Cloudy
3:55 PM 23.0 °F 11.7 °F 14.0 °F 68% 30.01 in 6.2 mi South 11.5 mph - N/A   Scattered Clouds
4:55 PM 39.2 °F 33.6 °F 32.0 °F 75% 29.98 in 6.2 mi South 8.1 mph - N/A   Scattered Clouds
5:00 PM 39 °F - 31 °F 64%  in 25 mi South 8.1 mph - -   Overcast
5:55 PM 37.4 °F 31.4 °F 28.4 °F 70% 29.98 in 6.2 mi South 8.1 mph - N/A   Scattered Clouds
6:55 PM 35.6 °F 29.2 °F 30.2 °F 81% 29.98 in 6.2 mi South 8.1 mph - N/A   Overcast
7:55 PM 33.8 °F 27.0 °F 30.2 °F 87% 29.98 in 0.1 mi South 8.1 mph - N/A Fog Fog
8:00 PM 34 °F - 31 °F 84%  in 0 mi South 8.1 mph - - Fog Heavy Fog
8:55 PM 33.8 °F 25.8 °F 33.8 °F 100% 29.98 in 0.0 mi SSE 10.4 mph - N/A Fog Fog
9:55 PM 33.8 °F 24.8 °F 33.8 °F 100% 29.98 in - SE 12.7 mph - N/A Fog Fog
11:55 PM 33.8 °F 23.9 °F 33.8 °F 100% 29.98 in 0.0 mi SSE 15.0 mph - N/A Fog , Rain Light Rain